(70) Panopaea
ephemeris date magn radius delta ra dec elong phase
Today26 Aug 202612.62.203 AU2.034 AU15h35m-27°20'85.8°27.2°
Opposition2 Nov 202711.42.581 AU1.589 AU02h33m+12°21'177.3°1.0°
(70) Panopaea - 2026-08-26
astro.vanbuitenen.nl


 
-1 year
-1 month
-1 day
Now
+1 day
+1 month
+1 year

The interactive orbit chart above shows the body's path through the solar system and its position at the given date. Green and blue lines are shown perpendicular to the ecliptic plane: Green if the path is above the ecliptic plane, blue if it is below. (Left-click and drag to rotate the view; Right-click and drag to move the view; Use scroll wheel to zoom in our out.)

The orbital elements of Panopaea are:

            e (Eccentricity)                : 0.1831105
            a (Semimajor axis)              : 2.6139718
            i (Inclination)                 : 11.59605
            Ω (Longitude of ascending node) : 47.63840
            ω (Argument of perihelion)      : 255.40133
            M (Mean anomaly)                : 316.26477
            Epoch                           : 2026 Jun 09

            L (Longitude of perihelion)     : 122.74893
            B (Latitude of perihelion)      : -11.21673
            P (Orbital period in years)     : 4.23            
        

The light curve chart below shows the estimated development of the minor planet's magnitude.


The all-sky chart below shows the path of the minor planet over the same period as the light curve. The current position is marked yellow.





The following chart shows the path of the minor planet in the next few days. The field of view is optimized for (~10x50) binoculars and finderscopes.




Ephemerides:
Date       Time       RA (2000)    DEC (2000)    delta   radius  elong  phase   PA    magn
2026-08-26 00:00 UT   15 35 51.1   -27 20 46     2.034    2.203   85.8   27.2   104   12.6 
2026-08-26 20:07 UT   15 37 03.4   -27 25 16     2.042    2.202   85.3   27.2   104   12.6 
2026-08-27 00:00 UT   15 37 17.4   -27 26 08     2.044    2.202   85.2   27.2   104   12.6 
2026-08-28 00:00 UT   15 38 45.0   -27 31 29     2.054    2.201   84.5   27.2   104   12.7 
2026-08-29 00:00 UT   15 40 13.7   -27 36 50     2.064    2.200   83.9   27.2   104   12.7 
2026-08-30 00:00 UT   15 41 43.5   -27 42 11     2.074    2.199   83.3   27.1   104   12.7 
2026-08-31 00:00 UT   15 43 14.5   -27 47 32     2.085    2.198   82.7   27.1   104   12.7 
2026-09-01 00:00 UT   15 44 46.7   -27 52 51     2.095    2.196   82.1   27.1   104   12.7 
2026-09-02 00:00 UT   15 46 19.9   -27 58 10     2.105    2.195   81.5   27.0   104   12.7 
2026-09-03 00:00 UT   15 47 54.3   -28 03 28     2.115    2.194   80.9   27.0   104   12.7 
2026-09-04 00:00 UT   15 49 29.8   -28 08 45     2.125    2.193   80.3   27.0   104   12.7 
2026-09-05 00:00 UT   15 51 06.4   -28 14 01     2.135    2.192   79.7   26.9   104   12.7 
2026-09-06 00:00 UT   15 52 44.0   -28 19 15     2.145    2.191   79.1   26.9   104   12.7 
2026-09-07 00:00 UT   15 54 22.7   -28 24 28     2.155    2.190   78.5   26.8   104   12.7 
2026-09-08 00:00 UT   15 56 02.5   -28 29 39     2.165    2.189   77.9   26.8   104   12.7 
2026-09-09 00:00 UT   15 57 43.4   -28 34 49     2.175    2.188   77.3   26.7   104   12.8 
2026-09-10 00:00 UT   15 59 25.2   -28 39 57     2.185    2.187   76.8   26.6   104   12.8 
2026-09-11 00:00 UT   16 01 08.2   -28 45 03     2.195    2.186   76.2   26.6   103   12.8 
2026-09-12 00:00 UT   16 02 52.1   -28 50 07     2.205    2.185   75.6   26.5   103   12.8 
2026-09-13 00:00 UT   16 04 37.1   -28 55 09     2.215    2.184   75.0   26.4   103   12.8 
2026-09-14 00:00 UT   16 06 23.0   -29 00 09     2.225    2.183   74.5   26.4   103   12.8 
2026-09-15 00:00 UT   16 08 09.9   -29 05 06     2.235    2.182   73.9   26.3   103   12.8 
2026-09-16 00:00 UT   16 09 57.8   -29 10 00     2.244    2.181   73.3   26.2   103   12.8 
2026-09-17 00:00 UT   16 11 46.7   -29 14 52     2.254    2.180   72.8   26.1   103   12.8 


    Terminology:
            
    delta:  distance between minor planet and earth in AU
    radius: distance between minor planet and sun in AU
    magn:   magnitude (brightness) estimate    
    ra:     right ascension in hours (24h = 360deg)
    dec:    declination in degrees
    elong:  elongation in degrees (angle sun-earth-minor planet)    
    phase:  phase angle in degrees (angle sun-minor planet-earth)        
    AU:     Astronomical Unit (mean distance between earth and sun: 149597870.7 km
    

Orbital elements provided by the MPC (Minor Planet Center).
Calculations by a modified version of AAPlus, a C# implementation of the AA+ project by PJ Naughter from the algorithms presented in the book "Astronomical Algorithms" by Jean Meeus.
NGC2000 dso catalog and star labels from VizieR as provided by the Strasbourg astronomical Data Center.
Tycho2 catalog from the ESO archive.